Weather History for Monticello, AR

Change the Weather History Date:

Monday, May 27, 2013

  Actual Average Record
Temperature  
Mean Temperature 78 °F -  
Max Temperature 88 °F 83 °F 95 °F (1953)
Min Temperature 70 °F 60 °F 37 °F (1961)
Cooling Degree Days 14    
Growing Degree Days 28 (Base 50)    
Moisture  
Dew Point 66 °F    
Average Humidity 68    
Maximum Humidity 84    
Minimum Humidity 46    
Precipitation  
Precipitation 0.00 in - - ()
Sea Level Pressure  
Sea Level Pressure 30.03 in    
Wind  
Wind Speed 5 mph (South)    
Max Wind Speed 14 mph    
Max Gust Speed 20 mph    
Visibility 10 miles    
Events      
Averages and records for this station are not official NWS values.
T = Trace of Precipitation, MM = Missing Value Source: NWS Daily Summary

Daily Weather History Graph

Daily Weather History Graph

Search for Another Location

Airport:

Trip Planner

Search our weather history database for the weather conditions in past years. The results will help you decide how hot, cold, wet, or windy it might be!

Date:

Astronomy

May. 27, 2013 Rise Set
Actual Time 5:59 AM CDT 8:09 PM CDT
Civil Twilight 5:31 AM CDT 8:37 PM CDT
Nautical Twilight 4:56 AM CDT 9:12 PM CDT
Astronomical Twilight 4:19 AM CDT 9:49 PM CDT
Moon 10:52 PM CDT (5/27) 8:35 AM CDT (5/27)
Length of Visible Light 15h 06m
Length of Day
14h 09m
Waning Gibbous, 91% of the Moon is Illuminated
May 27
Waning Gibbous
May 31
Last Quarter
Jun 8
New
Jun 16
First Quarter
Jun 23
Full

Hourly Weather History & Observations

Time (CDT) Temp. Heat Index Dew Point Humidity Pressure Visibility Wind Dir Wind Speed Gust Speed Precip Events Conditions
12:53 AM 73.0 °F - 64.0 °F 73% 30.07 in 10.0 mi South 3.5 mph - N/A   Overcast
1:53 AM 73.0 °F - 64.0 °F 73% 30.06 in 10.0 mi Calm Calm - N/A   Overcast
2:53 AM 71.1 °F - 64.0 °F 78% 30.05 in 10.0 mi SE 3.5 mph - N/A   Partly Cloudy
3:53 AM 71.1 °F - 64.0 °F 78% 30.05 in 10.0 mi Calm Calm - N/A   Partly Cloudy
4:53 AM 70.0 °F - 64.0 °F 81% 30.05 in 10.0 mi South 3.5 mph - N/A   Overcast
5:53 AM 70.0 °F - 64.0 °F 81% 30.06 in 10.0 mi South 4.6 mph - N/A   Partly Cloudy
6:53 AM 70.0 °F - 64.0 °F 81% 30.08 in 10.0 mi SSE 5.8 mph - N/A   Scattered Clouds
7:53 AM 71.1 °F - 66.0 °F 84% 30.09 in 10.0 mi South 5.8 mph - N/A   Partly Cloudy
8:53 AM 75.9 °F - 69.1 °F 79% 30.08 in 10.0 mi South 5.8 mph - N/A   Clear
9:44 AM 78.8 °F - 68.0 °F 69% 30.08 in 10.0 mi SSW 9.2 mph 17.3 mph N/A   Mostly Cloudy
9:53 AM 78.1 °F - 68.0 °F 71% 30.07 in 10.0 mi SSW 9.2 mph - N/A   Scattered Clouds
10:04 AM 78.8 °F - 69.8 °F 74% 30.08 in 10.0 mi SW 9.2 mph - N/A   Mostly Cloudy
10:20 AM 80.6 °F 83.9 °F 69.8 °F 70% 30.08 in 10.0 mi South 6.9 mph - N/A   Scattered Clouds
10:53 AM 81.0 °F 83.8 °F 68.0 °F 65% 30.06 in 10.0 mi SSW 12.7 mph 19.6 mph N/A   Partly Cloudy
11:53 AM 82.9 °F 85.8 °F 68.0 °F 60% 30.05 in 10.0 mi South 10.4 mph 19.6 mph N/A   Partly Cloudy
12:53 PM 84.0 °F 87.0 °F 68.0 °F 58% 30.03 in 10.0 mi SSW 11.5 mph 17.3 mph N/A   Mostly Cloudy
1:53 PM 86.0 °F 88.2 °F 66.0 °F 51% 30.02 in 10.0 mi SSW 9.2 mph 17.3 mph N/A   Partly Cloudy
2:53 PM 87.1 °F 89.2 °F 66.0 °F 49% 30.00 in 10.0 mi South 11.5 mph - N/A   Scattered Clouds
3:53 PM 87.1 °F 89.9 °F 66.9 °F 51% 29.99 in 10.0 mi SSE 8.1 mph - N/A   Scattered Clouds
4:53 PM 87.1 °F 88.3 °F 64.0 °F 46% 29.96 in 10.0 mi South 13.8 mph 18.4 mph N/A   Clear
5:53 PM 86.0 °F 87.6 °F 64.9 °F 49% 29.95 in 10.0 mi South 8.1 mph - N/A   Clear
6:53 PM 84.0 °F 85.8 °F 64.9 °F 53% 29.94 in 10.0 mi South 6.9 mph - N/A   Clear
7:53 PM 81.0 °F 83.3 °F 66.9 °F 62% 29.94 in 10.0 mi South 3.5 mph - N/A   Clear
8:53 PM 78.1 °F - 66.9 °F 68% 29.95 in 10.0 mi Calm Calm - N/A   Clear
9:53 PM 75.0 °F - 68.0 °F 79% 29.96 in 10.0 mi SSE 3.5 mph - N/A   Clear
10:53 PM 73.9 °F - 66.9 °F 79% 29.98 in 10.0 mi South 3.5 mph - N/A   Clear
11:53 PM 73.0 °F - 66.9 °F 81% 29.98 in 10.0 mi South 4.6 mph - N/A   Clear